Location: ???????
(55.5894°N, 38.4362°E)
Time: 19:27:57
(UTC+00:00)

Daily predictions for brighter satellites

Satellite Brightness Start Highest point End
(mag) Time Altitude Azimuth Time Altitude Azimuth Time Altitude Azimuth
NOSS 3-3 (C) 4.4 15:56:28 10° S 16:01:26 36° ESE 16:07:13 10° ENE
Cosmos 2219 Rocket 3.4 15:58:23 10° WSW 16:03:51 47° NW 16:09:20 10° NNE
Cosmos 2026 Rocket 4.5 15:59:32 10° N 16:05:21 39° ENE 16:11:03 10° SE
USA 267 3.3 15:58:55 10° ENE 16:05:32 81° SSE 16:12:07 10° WSW
Cosmos 1743 4.0 16:04:50 10° SW 16:08:14 43° WNW 16:11:40 10° N
Cosmos 2322 Rocket 4.1 16:03:52 10° W 16:08:50 29° NNW 16:13:47 10° NNE
Cosmos 1125 Rocket 4.2 16:04:29 10° NNW 16:09:36 58° WSW 16:14:42 10° S
In-Cosmos 22 4.2 16:03:55 10° NNW 16:09:37 81° ENE 16:15:09 10° SSE
Cosmos 1891 Rocket 4.5 16:03:45 10° S 16:09:53 70° E 16:16:11 10° NNE
Cosmos 2237 Rocket 2.2 16:04:26 10° SSW 16:09:58 60° ESE 16:15:31 10° NE
Cosmos 1500 Rocket 4.3 16:07:04 10° SSE 16:10:50 30° E 16:14:36 10° NNE
NOSS 3-3 (A) 4.2 16:06:18 10° SSW 16:11:27 42° ESE 16:17:29 10° NE
CZ-4B R/B 3.4 16:06:54 10° SSE 16:11:42 74° ENE 16:16:39 10° NNW
Cosmos 1943 Rocket 3.2 16:06:42 10° NW 16:11:59 48° WSW 16:17:15 10° S
Cosmos 1570 Rocket 4.1 16:07:14 10° S 16:12:21 54° ESE 16:17:28 10° NE
YAOGAN 1 3.2 16:08:12 10° S 16:12:27 62° WSW 16:16:44 10° NNW
ARGOS Delta rocket 3.9 16:08:23 10° SSE 16:13:03 57° ENE 16:17:31 10° N
Cosmos 2150 Rocket 4.0 16:08:54 10° NNW 16:14:05 89° WSW 16:19:15 10° SSE
Meteor 2-10 4.4 16:09:05 10° S 16:14:35 53° E 16:20:09 10° NNE
Iridium 4 Rocket 3.8 16:10:38 10° N 16:14:43 58° W 16:18:54 10° SSW
Cosmos 1766 Rocket 3.8 16:11:06 10° SSW 16:15:30 77° WNW 16:19:59 10° N
Cosmos 1092 Rocket 4.4 16:09:44 10° N 16:15:49 45° ENE 16:21:53 10° SE
Cosmos 2298 Rocket 4.1 16:11:46 10° NNW 16:17:07 86° WSW 16:22:26 10° SSE
SL-08 R/B 3.7 16:12:59 10° NNE 16:17:43 44° E 16:22:24 10° S
SeaSat 1 2.5 16:15:18 10° NE 16:20:09 55° ESE 16:24:58 10° SSW
Okean 3 Rocket 3.5 16:16:00 10° S 16:20:24 70° E 16:24:49 10° NNE
Cosmos 1743 Rocket 4.4 16:17:03 10° SSE 16:20:47 29° E 16:24:32 10° NNE
USA 32 4.4 16:16:20 10° N 16:21:23 45° ENE 16:26:25 10° SSE
Cosmos 1513 Rocket 4.4 16:15:29 10° S 16:21:32 76° E 16:27:45 10° NNE
SJ-6B 2.5 16:18:13 10° SSE 16:21:48 79° ENE 16:25:26 10° NNW
Cosmos 1408 Rocket 3.8 16:18:34 10° SSE 16:22:47 47° E 16:27:05 10° NNE
Cosmos 1726 4.4 16:20:38 10° WSW 16:22:52 22° WNW 16:25:06 10° NNW
USA 186 2.3 16:20:36 10° SE 16:23:38 38° ENE 16:26:41 10° N
Cosmos 158 Rocket 3.9 16:19:27 10° S 16:24:13 58° ESE 16:29:02 10° NNE
Helios 1A 3.5 16:20:32 10° NNE 16:24:19 35° E 16:28:05 10° SSE
GEOS 3 Rocket 3.7 16:20:03 10° ESE 16:25:13 68° NE 16:30:21 10° NW
Cosmos 1656 Rocket 3.7 16:20:27 10° NNW 16:26:09 78° NE 16:31:44 10° SE
Aureole 3 Rocket 3.8 16:22:19 10° SSE 16:26:54 33° E 16:30:27 10° NNE
Cosmos 2297 3.7 16:21:21 10° NNW 16:27:01 73° NE 16:32:40 10° SE
COSMO-SKYMED 1 3.6 16:23:55 10° N 16:28:09 51° WNW 16:32:22 10° SW
Sich 1 3.4 16:26:17 10° SSE 16:30:19 40° E 16:34:24 10° NNE
Okean O Rocket 2.4 16:26:35 10° SE 16:30:35 34° ENE 16:34:35 10° N
Cosmos 2369 Rocket 2.3 16:26:16 10° NNW 16:32:01 68° NE 16:37:42 10° SE
CARTOSAT-1 3.7 16:27:58 10° SE 16:32:07 54° ENE 16:36:17 10° N
NOSS 3-4 (A) 3.9 16:26:23 10° NW 16:32:57 83° SW 16:40:37 10° SE
CSL-04 Debris 4.3 16:27:41 10° SE 16:33:02 57° ENE 16:38:23 10° N
NOSS 3-4 (C) 3.9 16:26:29 10° NW 16:33:03 83° SW 16:40:43 10° SE
DMSP B5D1-3 4.5 16:28:13 10° NNE 16:33:19 70° ESE 16:38:23 10° S
Meteor 1-23 Rocket 4.2 16:28:15 10° NNW 16:33:56 74° ENE 16:39:38 10° SSE
Cosmos 1464 Rocket 4.0 16:29:10 10° S 16:35:30 75° E 16:41:54 10° NNE
PAYLOAD B 4.2 16:30:23 10° SSE 16:35:59 77° ENE 16:41:37 10° NNW
SL-16 R/B 4.4 16:34:10 10° WNW 16:38:22 21° NNW 16:42:34 10° NNE
SPOT 5 3.8 16:35:45 14° ESE 16:38:40 26° ENE 16:42:16 10° N
Cosmos 1980 3.8 16:35:01 10° SW 16:40:43 87° WNW 16:46:28 10° NE
CZ-4 R/B 1.3 16:37:39 10° SSE 16:41:33 89° ENE 16:45:33 10° NNW
Helios 1B rocket 4.4 16:38:24 10° SSW 16:41:46 29° W 16:45:09 10° NW
TRACE 4.4 16:38:53 10° NNE 16:42:17 87° WNW 16:45:38 10° SSW
Cosmos 1408 4.2 16:44:18 10° NE 16:44:33 10° NE 16:44:33 10° NE
ARIANE 6 FM1 Upper Stage 4.4 16:43:18 10° SSE 16:45:19 15° SE 16:45:19 15° SE
Terra 3.3 16:43:35 14° E 16:46:00 20° NE 16:49:24 10° N
Cosmos 1980 Rocket 4.4 16:46:03 10° NW 16:49:38 17° N 16:53:12 10° NE
NOSS 0 Rocket 4.4 16:44:45 10° SW 16:50:59 69° NW 16:57:14 10° NE
Cosmos 2228 Rocket 3.4 16:46:54 10° N 16:51:23 48° ENE 16:55:13 13° SE
CZ-4B R/B 3.1 16:47:21 10° SSE 16:51:26 78° WSW 16:55:41 10° NNW
Okean 1-7 4.2 16:48:53 10° N 16:52:30 26° ENE 16:54:22 19° ESE
Cosmos 2333 Rocket 4.3 16:48:34 10° W 16:53:14 24° NNW 16:57:53 10° NNE
Cosmos 1805 Rocket 3.5 16:49:27 10° S 16:53:43 61° E 16:58:03 10° NNE
Cosmos 1627 Rocket 4.4 16:49:53 10° N 16:56:11 77° ENE 17:02:21 10° SSE
Cosmos 192 4.4 16:51:39 10° NNW 16:56:32 64° ENE 17:00:18 17° SE
Cosmos 1633 Rocket 4.2 16:55:51 19° ESE 16:57:27 24° E 17:00:58 10° NNE
Resurs 01 Rocket 1.6 16:54:19 10° SSE 16:58:45 89° WSW 17:03:12 10° NNW
Cosmos 1441 Rocket 3.6 16:56:00 10° SSE 16:59:15 35° E 17:02:31 10° NNE
Cosmos 2084 Rocket 4.5 16:56:24 10° S 16:59:50 24° SE 17:00:51 22° ESE
Feng Yun 1-1 Rocket 4.4 16:54:14 10° SSE 17:00:07 84° ENE 17:06:06 10° NNW
Cosmos 1975 2.9 16:57:51 10° S 17:01:35 47° E 17:05:21 10° NNE
RESURS DK-1 4.3 16:58:47 10° NNW 17:01:39 18° NNE 17:03:54 12° ENE
Cosmos 2034 Rocket 3.9 16:56:27 10° S 17:02:37 80° E 17:08:48 10° NNE
Cosmos 1862 Rocket 3.8 17:00:07 10° N 17:04:29 52° ENE 17:07:31 19° SE
Okean-O 3.1 17:02:15 21° SE 17:04:48 42° ENE 17:08:58 10° N
MOS 1 Rocket 4.2 17:01:51 19° ESE 17:05:07 39° ENE 17:10:07 10° N
Cosmos 1707 Rocket 3.6 17:03:14 10° N 17:07:40 61° ENE 17:10:53 18° SSE
Meteor 2-12 Rocket 4.4 17:01:43 10° N 17:07:55 79° ENE 17:14:06 10° SSE
ERS-1 Rocket 3.8 17:06:23 21° ESE 17:08:52 33° ENE 17:13:22 10° N
Cosmos 2279 Rocket 4.4 17:04:35 10° SSE 17:10:17 39° E 17:15:58 10° NNE
ACS3 Solar Sail 1.9 17:04:04 10° SSE 17:10:29 76° ENE 17:16:54 10° NNW
Cosmos 2208 Rocket 4.2 17:07:34 10° SSW 17:12:54 77° WNW 17:18:20 10° NNE
ISS -3.1 17:12:11 10° WSW 17:15:23 41° S 17:16:17 33° SE
SL-16 R/B 2.2 17:09:52 10° SSW 17:15:26 61° ESE 17:21:02 10° NE
Cosmos 1666 Rocket 4.0 17:14:16 21° SSE 17:16:42 39° E 17:20:44 10° NNE
USA 306 2.8 17:15:28 10° W 17:18:41 50° SSW 17:19:53 34° SE
GENESIS II 4.5 17:18:43 10° WSW 17:22:12 58° NW 17:25:41 10° NE
ATLAS 2AS CENTAUR R/B 3.4 17:17:10 10° WNW 17:23:55 46° NNE 17:29:02 17° E
Cosmos 1805 3.6 17:21:56 10° SSW 17:25:32 60° WNW 17:29:10 10° N
Cosmos 1470 4.2 17:28:17 20° ENE 17:28:17 20° ENE 17:30:04 10° NE
Meteor 1-11 Rocket 4.4 17:22:29 10° SSW 17:27:57 57° WNW 17:33:25 10° N
Cosmos 1943 3.9 17:26:18 23° SE 17:28:35 31° ESE 17:33:29 10° NE
Okean 3 3.3 17:25:55 10° N 17:30:07 82° ENE 17:32:24 26° SSE
SL-24 R/B 4.3 17:26:29 17° SSE 17:30:10 73° E 17:35:06 10° N
Cosmos 1697 Rocket 4.3 17:27:19 10° NNW 17:31:48 23° NNE 17:35:07 14° ENE
Cosmos 783 Rocket 4.4 17:27:48 10° SSW 17:33:00 66° ESE 17:38:13 10° NNE
Cosmos 2263 4.5 17:30:03 10° NW 17:35:44 67° WSW 17:39:34 21° SSE
ATLAS CENTAUR R/B 2.5 17:32:15 10° W 17:35:44 38° NNW 17:39:25 10° NE
CSL-04 Rocket 4.1 17:31:06 10° S 17:36:19 59° WSW 17:41:34 10° NNW
CZ-4B R/B 3.9 17:32:41 10° S 17:37:56 53° W 17:43:10 10° NNW
MOS 1 4.2 17:34:34 22° SSE 17:38:26 83° ENE 17:44:09 10° NNW
Ariane Rocket 3.7 17:37:30 30° E 17:38:57 36° ENE 17:43:35 10° N
PSLV R/B 3.4 17:40:36 42° S 17:41:41 82° WSW 17:45:10 10° NNW
IRS-1C Rocket 4.2 17:42:13 34° SE 17:44:22 59° ENE 17:49:34 10° NNW
DELTA 2 DEB (DPAF) 4.5 17:43:14 10° NNE 17:46:47 39° E 17:46:47 39° E
USA 267 3.3 17:43:53 21° E 17:48:37 80° N 17:55:12 10° W
Cosmos 2344 4.0 17:41:51 10° WNW 17:49:22 64° NNE 17:55:09 25° E
NOSS 3-3 (C) 4.1 17:46:08 10° WSW 17:51:52 75° NNW 17:58:48 10° NE
Cosmos 773 Rocket 4.4 17:48:44 10° SW 17:53:59 64° WNW 17:59:17 10° NNE
Cosmos 2237 Rocket 3.6 17:49:04 10° WSW 17:54:19 39° NW 17:59:37 10° NNE
USA 245 4.0 17:55:58 31° NNE 17:55:58 31° NNE 17:58:10 10° N
Cosmos 2266 Rocket 4.0 17:49:05 10° N 17:55:23 66° ENE 17:58:14 34° SSE
USA 186 4.4 17:53:04 10° SW 17:55:28 19° W 17:57:55 10° NW
SeaSat 1 3.8 17:52:55 10° NNE 17:57:29 39° NW 18:02:03 10° WSW
Cosmos 2056 Rocket 4.0 17:53:08 10° NNW 17:58:16 47° NE 17:59:35 39° E
Cosmos 724 4.2 17:53:19 10° SW 17:59:07 87° NW 18:05:00 10° NE
Cosmos 1825 4.4 18:00:04 10° NNE 18:00:33 12° NNE 18:00:33 12° NNE
NOSS 3-3 (A) 4.3 17:56:19 10° WSW 18:02:03 68° NNW 18:09:00 10° NE
Okean O Rocket 2.8 18:03:42 16° SSW 18:06:48 40° W 18:10:59 10° NNW
Cosmos 1766 3.4 18:07:23 38° SW 18:08:36 65° WNW 18:12:17 10° N
SL-24 R/B - RUBIN 2 4.3 18:04:50 10° NW 18:11:22 85° SW 18:13:19 46° SE
Cosmos 1607 4.2 18:08:29 10° SW 18:14:58 75° NW 18:21:24 10° NE
Cosmos 2369 Rocket 3.7 18:10:44 10° NW 18:15:40 31° WSW 18:19:41 14° SSW
SPOT 5 3.2 18:14:53 35° SSW 18:16:28 54° WSW 18:20:45 10° NNW
Cosmos 1408 4.1 18:14:03 10° NNW 18:15:20 24° NNW 18:15:20 24° NNW
CZ-4 R/B 4.3 18:14:50 10° WSW 18:16:42 13° W 18:18:34 10° WNW
Cosmos 1420 Rocket 3.9 18:14:17 10° NNW 18:19:30 75° ENE 18:20:22 60° ESE
Aureole 3 4.1 18:17:49 10° NNW 18:22:13 65° W 18:24:05 38° SSW
Okean 2 4.2 18:18:46 10° NNW 18:22:36 45° W 18:23:34 37° SW
Terra 1.7 18:22:16 63° S 18:23:03 86° WSW 18:27:47 10° NNW
ARIANE 6 FM1 Upper Stage 4.4 18:20:11 10° SW 18:21:45 22° SW 18:21:45 22° SW
SL-16 R/B 4.5 18:20:53 10° NNW 18:24:39 18° N 18:28:25 10° NE
Okean 1-7 3.7 18:25:51 10° NNW 18:30:00 49° W 18:30:54 41° SW
Meteor 1-24 Rocket 3.8 18:27:51 10° N 18:33:45 63° ENE 18:34:29 58° ESE
Cosmos 1656 3.7 18:28:21 10° NNW 18:34:02 65° NE 18:34:51 58° E
Cosmos 1633 Rocket 3.8 18:32:47 28° SW 18:34:51 52° WNW 18:39:12 10° N
Cosmos 1538 Rocket 3.9 18:33:26 44° SSW 18:35:11 83° ESE 18:40:35 10° NNE
Cosmos 1980 Rocket 3.6 18:30:51 10° NNW 18:35:35 27° NNE 18:37:22 23° ENE
Resurs 01 Rocket 4.4 18:33:18 10° WSW 18:35:51 15° W 18:38:23 10° NW
Cosmos 2084 Rocket 4.3 18:34:13 10° SW 18:37:01 40° WSW 18:37:01 40° WSW
RESURS DK-1 2.9 18:36:04 10° NNW 18:39:25 51° N 18:39:25 51° N
Okean-O 4.1 18:39:41 25° SW 18:41:17 32° W 18:45:16 10° NNW
MOS 1 Rocket 4.4 18:41:01 31° SSW 18:43:09 46° W 18:48:21 10° NNW
Spot 2 Rocket 3.5 18:43:33 63° SSW 18:44:12 71° WSW 18:49:17 10° NNW
ERS-1 Rocket 3.6 18:46:18 42° SW 18:47:28 51° W 18:52:23 10° NNW
ARIANE 5 R/B 4.3 18:48:27 23° NE 18:48:27 23° NE 18:51:04 10° N
ISS -0.8 18:48:56 10° W 18:49:13 12° WSW 18:49:13 12° WSW
ACS3 Solar Sail 3.6 18:49:43 10° SW 18:55:07 28° W 19:00:32 10° NNW
Cosmos 1703 Rocket 4.3 18:50:53 10° NNW 18:55:09 45° W 18:55:21 45° WSW
Cosmos 1470 Rocket 4.3 18:56:01 46° WSW 18:56:42 50° WNW 19:01:04 10° N
SL-16 R/B 3.5 18:54:33 10° WSW 18:59:51 39° NW 19:05:11 10° NNE
Cosmos 1371 Rocket 4.0 18:55:10 10° NNW 19:00:20 74° WSW 19:00:20 74° WSW
SPOT 3 Rocket 3.7 19:00:54 63° SW 19:01:12 65° WSW 19:06:21 10° NNW
Meteor 2-5 Rocket 3.7 18:55:40 10° NNW 19:01:39 88° W 19:02:09 76° S
Cosmos 1470 4.3 19:02:43 33° NW 19:02:43 33° NW 19:05:30 10° N
Cosmos 1624 Rocket 4.2 19:04:02 10° NNW 19:09:09 66° WSW 19:09:09 66° WSW
Cosmos 1346 Rocket 4.4 19:13:16 32° NNW 19:13:16 32° NNW 19:15:44 10° N
Cosmos 1943 3.4 19:07:43 16° SW 19:12:16 67° NW 19:17:57 10° NNE
Cosmos 1331 Rocket 4.5 19:07:17 10° NNW 19:12:05 53° NE 19:12:05 53° NE
Cosmos 1603 3.6 19:13:46 77° NE 19:13:46 77° NE 19:19:00 10° NE
ATLAS CENTAUR R/B 3.4 19:10:56 10° WNW 19:13:59 22° N 19:14:52 20° NNE
Cosmos 2242 Rocket 4.3 19:10:54 10° NNW 19:14:33 55° NNW 19:14:33 55° NNW
ATLAS 2AS CENTAUR R/B 2.5 19:08:38 10° NW 19:15:37 82° NE 19:16:25 70° ESE
Cosmos 1697 Rocket 2.9 19:11:18 10° NNW 19:16:49 60° NE 19:16:49 60° NE
Cosmos 1655 Rocket 4.4 19:10:51 10° NNW 19:17:07 58° W 19:18:35 47° SW
Ariane Rocket 3.6 19:17:37 47° WSW 19:17:48 47° W 19:22:43 10° NNW
Meteor 2-10 Rocket 3.8 19:21:14 68° NNE 19:21:14 68° NNE 19:26:11 10° NNE
Cosmos 2360 Rocket 4.5 19:19:16 10° NNW 19:23:07 18° NNE 19:26:59 10° ENE
Meteor 1-15 Rocket 4.3 19:24:37 80° NNE 19:24:37 80° NNE 19:30:10 10° NNE
USA 267 3.1 19:31:14 78° SE 19:31:41 84° SSW 19:38:18 10° WNW
Cosmos 521 Rocket 4.5 19:26:49 10° NW 19:33:24 76° NE 19:33:38 75° ENE
Cosmos 2360 4.3 19:28:25 10° NW 19:33:38 73° WNW 19:33:38 73° WNW
Cosmos 1452 Rocket 3.9 19:30:35 10° NNW 19:34:58 60° N 19:34:58 60° N
Cosmos 1110 Rocket 4.4 19:33:04 10° NNW 19:37:18 59° NNW 19:37:18 59° NNW
Cosmos 2322 Rocket 4.3 19:36:41 10° NNW 19:40:59 21° NNE 19:43:46 15° ENE
ALOS 2 4.5 19:44:59 25° NNE 19:44:59 25° NNE 19:47:18 10° N
Cosmos 1745 Rocket 4.1 19:38:32 10° N 19:44:30 68° NE 19:44:30 68° NE
Cosmos 1386 Rocket 4.5 19:38:50 10° N 19:44:53 77° NE 19:44:53 77° NE
Terra 4.1 20:00:58 15° W 20:01:21 15° W 20:04:10 10° NW
Cosmos 2344 4.1 19:56:07 10° NW 20:03:59 59° SW 20:05:08 56° SSW
Cosmos 2369 4.3 20:04:28 10° NNW 20:09:17 51° NNE 20:09:17 51° NNE
SL-16 R/B 3.6 20:05:33 10° NNW 20:10:35 31° NE 20:11:15 30° NE
Cosmos 1980 Rocket 2.8 20:14:48 10° NNW 20:19:05 53° NNW 20:19:05 53° NNW
Cosmos 2333 Rocket 3.9 20:21:04 10° NNW 20:25:53 26° NNE 20:27:36 23° NE
Cosmos 1553 Rocket 4.3 20:29:43 61° NW 20:29:43 61° NW 20:35:24 10° N
Cosmos 1709 Rocket 4.2 20:26:25 10° NNW 20:31:59 68° NNW 20:31:59 68° NNW
Cosmos 1818 4.5 20:28:43 10° NW 20:33:06 46° N 20:33:06 46° N
Cosmos 2315 Rocket 4.5 20:43:21 54° NE 20:43:21 54° NE 20:48:12 10° NNE
Cosmos 1833 Rocket 3.9 20:46:53 35° NE 20:46:53 35° NE 20:50:04 10° NE
ATLAS CENTAUR R/B 4.2 20:48:56 10° NW 20:49:32 13° NW 20:49:32 13° NW
Cosmos 2074 Rocket 4.5 20:50:06 10° N 20:55:17 55° NNE 20:55:17 55° NNE
Cosmos 1697 Rocket 4.3 20:55:35 10° NW 20:58:31 26° WNW 20:58:31 26° WNW
ATLAS 2AS CENTAUR R/B 4.0 20:59:57 10° WNW 21:03:49 28° W 21:03:49 28° W
Cosmos 2360 Rocket 3.4 21:03:34 10° NNW 21:08:47 36° NE 21:08:51 36° NE
Cosmos 2219 Rocket 3.8 21:16:10 10° NNW 21:21:08 30° NNE 21:22:36 27° ENE
Cosmos 2322 Rocket 3.1 21:20:51 10° NNW 21:25:32 46° NNE 21:25:32 46° NNE
CZ-2C R/B 4.3 21:31:39 26° ENE 21:31:49 26° NE 21:36:01 10° N
Cosmos 2082 Rocket 3.3 21:44:56 38° NE 21:44:56 38° NE 21:48:25 10° NE
Cosmos 2184 Rocket 4.5 21:41:16 10° NNW 21:46:17 55° NW 21:46:17 55° NW
SL-16 R/B 3.3 21:49:38 10° NW 21:53:03 38° NW 21:53:03 38° NW
COSMOS 2455 4.4 22:02:11 25° E 22:02:11 25° E 22:05:38 10° NE
CZ-2D R/B 4.4 21:59:24 10° NE 22:02:17 14° E 22:02:52 14° E
H-2A R/B 4.1 21:59:30 10° NNE 22:01:28 25° NNE 22:01:28 25° NNE
Cosmos 1980 Rocket 4.3 21:59:25 10° NW 22:00:49 16° WNW 22:00:49 16° WNW
Cosmos 2341 Rocket 4.3 21:59:45 10° N 22:05:23 62° NE 22:05:23 62° NE
COSMOS 2406 4.0 22:08:24 47° NE 22:08:24 47° NE 22:12:26 10° NE
Cosmos 2333 Rocket 3.0 22:05:23 10° NNW 22:09:33 48° NNW 22:09:33 48° NNW
SL-16 R/B 4.3 22:15:45 10° ESE 22:20:55 28° NE 22:26:07 10° N
USA 215 3.3 22:14:22 10° ENE 22:20:06 70° E 22:20:06 70° E
CZ-4C R/B 2.8 22:24:46 52° NE 22:24:46 52° NE 22:29:37 10° NE
Resurs 1-4 Rocket 3.9 22:24:05 10° NE 22:28:05 21° E 22:28:13 21° E
Cosmos 1833 Rocket 3.9 22:28:33 33° NW 22:28:51 34° NW 22:33:59 10° NNE
SL-8 Rocket 4.1 22:29:07 10° NNW 22:34:30 69° NNW 22:34:30 69° NNW
USA 281 3.9 22:33:25 19° ESE 22:37:58 51° NE 22:44:18 10° NNW
Cosmos 407 Rocket 4.5 22:45:16 42° ENE 22:45:16 42° ENE 22:49:23 10° NE
IDEFIX/ARIANE 42P 3.6 22:43:01 10° NNE 22:47:34 40° E 22:47:34 40° E
COSMOS 2428 3.6 22:45:55 10° NNW 22:51:29 48° NE 22:55:43 17° ESE
Cosmos 2360 Rocket 3.4 22:47:34 10° NW 22:50:33 32° NW 22:50:33 32° NW
ADEOS II 3.8 22:50:35 10° NE 22:54:42 23° E 22:55:41 22° ESE
Lacrosse 5 2.8 22:59:31 43° ENE 22:59:31 43° ENE 23:02:57 10° ENE
CENTAUR R/B 3.0 23:05:25 48° SE 23:05:25 48° SE 23:12:20 10° NE
Cosmos 2219 Rocket 2.7 23:00:05 10° NW 23:04:13 50° NW 23:04:13 50° NW
Cosmos 2181 Rocket 4.0 23:08:22 75° SE 23:08:46 78° E 23:15:15 10° NNE
Cosmos 2322 Rocket 3.8 23:05:04 10° NW 23:07:17 23° NW 23:07:17 23° NW
Cosmos 2366 rocket 4.2 23:04:42 10° NNW 23:10:13 58° WNW 23:10:13 58° WNW
CZ-2C R/B 3.2 23:13:08 47° NNW 23:13:08 47° NNW 23:16:52 10° NNW
Cosmos 2237 Rocket 3.7 23:06:49 10° NNW 23:11:59 35° NE 23:17:09 10° ESE
Meteor 2-1 Rocket 4.3 23:19:59 70° ESE 23:20:03 70° E 23:25:43 10° NNE
Cosmos 1140 Rocket 3.7 23:23:03 63° NNW 23:23:03 63° NNW 23:27:40 10° NNE
Cosmos 2082 Rocket 3.1 23:26:46 36° NW 23:27:17 37° NW 23:32:31 10° NNE
NOSS 3-3 (C) 4.3 23:20:19 10° NW 23:27:27 81° SW 23:35:55 10° SE
NOSS 3-2 (A) 4.0 23:27:41 40° SE 23:27:55 40° ESE 23:33:46 10° NE
Cosmos 1455 Rocket 4.1 23:30:53 39° N 23:30:53 39° N 23:33:49 10° N
Cosmos 1934 Rocket 4.4 23:27:41 10° N 23:34:01 63° ENE 23:37:22 29° SE
NOSS 3-3 (A) 4.3 23:30:19 10° NW 23:37:26 73° SW 23:45:52 10° SE
H-2A R/B 3.9 23:35:38 10° N 23:38:11 22° NW 23:38:11 22° NW
Meteor 2-3 Rocket 3.8 23:34:09 10° NNW 23:39:35 66° WNW 23:39:35 66° WNW
Cosmos 1607 4.1 23:33:32 10° NW 23:39:56 72° NE 23:46:12 10° ESE
CZ-2D R/B 2.3 23:37:50 10° NNE 23:43:20 68° ESE 23:44:08 59° SSE
Cosmos 1867 3.9 23:44:36 52° SE 23:44:54 53° SE 23:50:14 10° NE
COSMOS 2455 2.7 23:45:18 71° WSW 23:45:59 82° NW 23:52:05 10° NE
COSMOS 2406 4.2 23:50:26 32° WNW 23:51:31 35° NW 23:56:44 10° NNE
NPP 3.5 23:49:00 10° NNE 23:54:25 76° WNW 23:54:49 72° WSW
Cosmos 2333 Rocket 4.1 23:50:12 10° NW 23:51:31 16° WNW 23:51:31 16° WNW
